| time (UTC) | temp C | wind direction | speed KPH | gust KPH | rain 1hr cm | rain 24hr cm | rain mn cm | humidity % | barometer mb |
| 20260504130533 | 15 | 163 | 1.6 | 3.2 | 0.00 | 0.00 | 0.00 | 60 | 1014.4 |
| 20260504110514 | 6 | 177 | 0.0 | 0.0 | 0.00 | 0.00 | 0.00 | 93 | 1015.3 |
| 20260504100505 | 5 | 217 | 0.0 | 0.0 | 0.00 | 0.00 | 0.00 | 93 | 1014.9 |
| 20260504081441 | 6 | 219 | 0.0 | 0.0 | 0.00 | 0.00 | 0.00 | 94 | 1015.4 |
| 20260504080440 | 6 | 228 | 0.0 | 0.0 | 0.00 | 0.00 | 0.00 | 94 | 1015.1 |
| 20260504050409 | 3 | 220 | 0.0 | 0.0 | 0.00 | 0.00 | 0.00 | 93 | 1015.7 |
| 20260504045407 | 2 | 221 | 0.0 | 0.0 | 0.00 | 0.00 | 0.00 | 92 | 1015.9 |
| 20260504044408 | 2 | 223 | 0.0 | 0.0 | 0.00 | 0.00 | 0.00 | 92 | 1016.1 |
| 20260504043407 | 2 | 219 | 0.0 | 0.0 | 0.00 | 0.00 | 0.00 | 91 | 1016.0 |
| 20260504042407 | 2 | 222 | 0.0 | 0.0 | 0.00 | 0.00 | 0.00 | 91 | 1015.9 |
| 20260504041406 | 2 | 220 | 0.0 | 0.0 | 0.00 | 0.00 | 0.00 | 91 | 1015.9 |
| 20260504040405 | 3 | 214 | 0.0 | 0.0 | 0.00 | 0.00 | 0.00 | 91 | 1015.8 |
| 20260504035405 | 3 | 205 | 0.0 | 0.0 | 0.00 | 0.00 | 0.00 | 90 | 1015.8 |
| 20260504034405 | 3 | 228 | 0.0 | 0.0 | 0.00 | 0.00 | 0.00 | 89 | 1015.8 |
| 20260504033400 | 3 | 221 | 0.0 | 0.0 | 0.00 | 0.00 | 0.00 | 89 | 1016.0 |
| 20260504032359 | 3 | 214 | 0.0 | 0.0 | 0.00 | 0.00 | 0.00 | 88 | 1016.0 |
| 20260504031358 | 4 | 227 | 0.0 | 0.0 | 0.00 | 0.00 | 0.00 | 87 | 1015.8 |
| 20260504030358 | 4 | 219 | 0.0 | 0.0 | 0.00 | 0.00 | 0.00 | 85 | 1015.9 |
| 20260504025357 | 5 | 231 | 1.6 | 1.6 | 0.00 | 0.00 | 0.00 | 84 | 1015.8 |
| 20260504024356 | 4 | 216 | 0.0 | 0.0 | 0.00 | 0.00 | 0.00 | 84 | 1015.6 |
| 20260504023356 | 5 | 217 | 0.0 | 0.0 | 0.00 | 0.00 | 0.00 | 82 | 1015.4 |
| 20260504022354 | 5 | 236 | 0.0 | 1.6 | 0.00 | 0.00 | 0.00 | 80 | 1015.6 |
| 20260504021354 | 5 | 218 | 0.0 | 0.0 | 0.00 | 0.00 | 0.00 | 81 | 1015.6 |
| 20260504020353 | 5 | 217 | 0.0 | 0.0 | 0.00 | 0.00 | 0.00 | 79 | 1015.6 |
| 20260504015351 | 6 | 207 | 0.0 | 0.0 | 0.00 | 0.00 | 0.00 | 78 | 1015.1 |
| 20260504014349 | 6 | 219 | 0.0 | 0.0 | 0.00 | 0.00 | 0.00 | 75 | 1015.0 |
| 20260504013345 | 6 | 237 | 1.6 | 1.6 | 0.00 | 0.00 | 0.00 | 76 | 1014.8 |
| 20260504012345 | 7 | 219 | 0.0 | 1.6 | 0.00 | 0.00 | 0.00 | 72 | 1014.8 |
| 20260504011344 | 7 | 217 | 1.6 | 1.6 | 0.00 | 0.00 | 0.00 | 71 | 1014.9 |
| 20260504010342 | 8 | 216 | 0.0 | 1.6 | 0.00 | 0.00 | 0.00 | 67 | 1014.9 |
| 20260504005341 | 8 | 220 | 0.0 | 0.0 | 0.00 | 0.00 | 0.00 | 64 | 1015.0 |
| 20260504004336 | 8 | 216 | 0.0 | 0.0 | 0.00 | 0.00 | 0.00 | 62 | 1014.8 |
| 20260504003336 | 10 | 215 | 0.0 | 0.0 | 0.00 | 0.00 | 0.00 | 58 | 1014.5 |
| 20260504002335 | 10 | 218 | 0.0 | 0.0 | 0.00 | 0.00 | 0.00 | 54 | 1014.5 |
| 20260504001330 | 11 | 222 | 0.0 | 0.0 | 0.00 | 0.00 | 0.00 | 53 | 1014.4 |
| 20260504000329 | 12 | 220 | 0.0 | 0.0 | 0.00 | 0.00 | 0.00 | 50 | 1014.6 |
| 20260503235324 | 13 | 219 | 0.0 | 0.0 | 0.00 | 0.00 | 0.00 | 47 | 1014.5 |
| 20260503234324 | 15 | 223 | 0.0 | 0.0 | 0.00 | 0.00 | 0.00 | 41 | 1014.4 |
| 20260503233323 | 15 | 221 | 0.0 | 0.0 | 0.00 | 0.00 | 0.00 | 40 | 1014.5 |
| 20260503232323 | 17 | 236 | 0.0 | 0.0 | 0.00 | 0.00 | 0.00 | 37 | 1014.3 |
| 20260503231323 | 17 | 275 | 1.6 | 3.2 | 0.00 | 0.00 | 0.00 | 36 | 1014.0 |
| 20260503230322 | 17 | 224 | 1.6 | 1.6 | 0.00 | 0.00 | 0.00 | 35 | 1014.1 |
| 20260503225322 | 17 | 213 | 0.0 | 0.0 | 0.00 | 0.00 | 0.00 | 33 | 1014.0 |
| 20260503224321 | 17 | 211 | 6.4 | 9.7 | 0.00 | 0.00 | 0.00 | 33 | 1014.1 |
| 20260503223317 | 17 | 270 | 1.6 | 1.6 | 0.00 | 0.00 | 0.00 | 35 | 1014.1 |
| 20260503222311 | 18 | 262 | 8.0 | 11.3 | 0.00 | 0.00 | 0.00 | 33 | 1014.2 |
| 20260503221306 | 17 | 251 | 6.4 | 9.7 | 0.00 | 0.00 | 0.00 | 33 | 1014.0 |
| 20260503220305 | 18 | 31 | 6.4 | 6.4 | 0.00 | 0.00 | 0.00 | 34 | 1014.2 |
| 20260503215305 | 18 | 246 | 1.6 | 3.2 | 0.00 | 0.00 | 0.00 | 34 | 1014.1 |
| 20260503214300 | 18 | 241 | 3.2 | 4.8 | 0.00 | 0.00 | 0.00 | 33 | 1014.3 |
| 20260503213300 | 18 | 229 | 1.6 | 3.2 | 0.00 | 0.00 | 0.00 | 34 | 1014.2 |
| 20260503212255 | 18 | 255 | 8.0 | 12.9 | 0.00 | 0.00 | 0.00 | 32 | 1014.5 |
| 20260503211255 | 18 | 248 | 3.2 | 4.8 | 0.00 | 0.00 | 0.00 | 35 | 1014.5 |
| 20260503210253 | 17 | 280 | 6.4 | 9.7 | 0.00 | 0.00 | 0.00 | 31 | 1014.5 |
| 20260503205146 | 18 | 303 | 4.8 | 4.8 | 0.00 | 0.00 | 0.00 | 37 | 1014.4 |
| 20260503204146 | 18 | 303 | 4.8 | 4.8 | 0.00 | 0.00 | 0.00 | 37 | 1014.4 |
| 20260503203141 | 18 | 285 | 3.2 | 4.8 | 0.00 | 0.00 | 0.00 | 35 | 1014.5 |
| 20260503202136 | 18 | 285 | 3.2 | 4.8 | 0.00 | 0.00 | 0.00 | 35 | 1014.5 |
| 20260503201131 | 17 | 246 | 8.0 | 9.7 | 0.00 | 0.00 | 0.00 | 32 | 1014.7 |
| 20260503200129 | 17 | 260 | 1.6 | 3.2 | 0.00 | 0.00 | 0.00 | 37 | 1015.0 |
| 20260503195129 | 18 | 184 | 3.2 | 4.8 | 0.00 | 0.00 | 0.00 | 36 | 1015.1 |
| 20260503194127 | 17 | 97 | 9.7 | 11.3 | 0.00 | 0.00 | 0.00 | 38 | 1015.4 |
| 20260503193126 | 17 | 282 | 9.7 | 12.9 | 0.00 | 0.00 | 0.00 | 34 | 1015.3 |
| 20260503192123 | 17 | 239 | 4.8 | 6.4 | 0.00 | 0.00 | 0.00 | 38 | 1015.7 |
| 20260503191123 | 17 | 280 | 3.2 | 4.8 | 0.00 | 0.00 | 0.00 | 38 | 1015.6 |
| 20260503190123 | 16 | 313 | 9.7 | 11.3 | 0.00 | 0.00 | 0.00 | 39 | 1016.0 |
| 20260503185120 | 16 | 190 | 3.2 | 6.4 | 0.00 | 0.00 | 0.00 | 44 | 1016.0 |
| 20260503184118 | 15 | 288 | 6.4 | 6.4 | 0.00 | 0.00 | 0.00 | 40 | 1016.1 |
| 20260503183118 | 16 | 266 | 3.2 | 4.8 | 0.00 | 0.00 | 0.00 | 39 | 1015.9 |
| 20260503182114 | 16 | 324 | 8.0 | 11.3 | 0.00 | 0.00 | 0.00 | 39 | 1016.3 |
| 20260503181113 | 16 | 66 | 8.0 | 11.3 | 0.00 | 0.00 | 0.00 | 37 | 1016.2 |
| 20260503180108 | 15 | 273 | 11.3 | 14.5 | 0.00 | 0.00 | 0.00 | 40 | 1016.4 |
| 20260503175108 | 15 | 276 | 4.8 | 6.4 | 0.00 | 0.00 | 0.00 | 39 | 1016.6 |
| 20260503174107 | 15 | 217 | 8.0 | 11.3 | 0.00 | 0.00 | 0.00 | 42 | 1016.6 |
| 20260503173105 | 16 | 245 | 6.4 | 14.5 | 0.00 | 0.00 | 0.00 | 40 | 1016.7 |
| 20260503172105 | 15 | 311 | 6.4 | 9.7 | 0.00 | 0.00 | 0.00 | 46 | 1016.7 |
| 20260503171105 | 15 | 279 | 6.4 | 9.7 | 0.00 | 0.00 | 0.00 | 45 | 1016.8 |
| 20260503170104 | 16 | 286 | 4.8 | 4.8 | 0.00 | 0.00 | 0.00 | 37 | 1016.9 |